Resolute,

10:27 PM CDT on June 24, 2017 (GMT -0500)
Resolute

Weather History for CYRB - August, 2013

Change the Weather History Date:

Tuesday, August 20, 2013

  Actual Average Record
Temperature  
Mean Temperature 26 °F -  
Max Temperature 30 °F 31 °F 50 °F (2007)
Min Temperature 23 °F 23 °F 23 °F (2013)
Degree Days  
Heating Degree Days 38    
Moisture  
Dew Point 24 °F    
Average Humidity 84    
Maximum Humidity 93    
Minimum Humidity 60    
Precipitation  
Precipitation 0.00 in 0.03 in - ()
Sea Level Pressure  
Sea Level Pressure 29.54 in    
Wind  
Wind Speed 9 mph ()    
Max Wind Speed 17 mph    
Max Gust Speed 17 mph    
Visibility 14.9 miles    
Events Snow    
Averages and records for this station are not official NWS values.
T = Trace of Precipitation, MM = Missing Value Source: Averaged Metar Reports

Daily Weather History Graph

Daily Weather History Graph

Search for Another Location

Airport or City:

Trip Planner

Search our weather history database for the weather conditions in past years. The results will help you decide how hot, cold, wet, or windy it might be!

Date:

Astronomy

Aug. 20, 2013 Rise Set
Actual Time 3:27 AM CDT 11:11 PM CDT
Civil Twilight Sun does not set Sun does not set
Nautical Twilight Sun does not set Sun does not set
Astronomical Twilight Sun does not set Sun does not set
Moon 9:17 PM CDT (8/20) 3:36 AM CDT (8/20)
Length of Visible Light 24h 00m
Length of Day
19h 44m
Full, 100% of the Moon is Illuminated
Aug 20
Full
Aug 20
Full
Aug 28
Last Quarter
Sep 5
New
Sep 12
First Quarter

Hourly Weather History & Observations

Time (CDT) Temp. Windchill Dew Point Humidity Pressure Visibility Wind Dir Wind Speed Gust Speed Precip Events Conditions
12:00 AM 26.6 °F 19.1 °F 21.2 °F 80% 29.56 in 15.0 mi WNW 6.9 mph - N/A   Light Ice Pellets
12:22 AM - - - N/A% - 15.0 mi NW 6.9 mph - N/A   Overcast
1:00 AM 26 °F - 18 °F 60% 29.56 in 15 mi NW 8.1 mph - - Snow Light Snow
1:00 AM 26.6 °F 18.2 °F 17.6 °F 69% 29.56 in 15.0 mi WNW 8.1 mph - N/A   Overcast
2:00 AM 24.8 °F 15.3 °F 17.6 °F 74% 29.56 in 15.0 mi NNW 9.2 mph - N/A   Partly Cloudy
3:00 AM 23.0 °F 15.8 °F 17.6 °F 80% 29.56 in 15.0 mi NNW 5.8 mph - N/A   Mostly Cloudy
4:00 AM 24.8 °F 19.1 °F 19.4 °F 80% 29.56 in 15.0 mi NW 4.6 mph - N/A   Mostly Cloudy
5:00 AM 26.6 °F 18.2 °F 23.0 °F 86% 29.55 in 15.0 mi West 8.1 mph - N/A   Mostly Cloudy
5:09 AM - - - N/A% - 15.0 mi West 9.2 mph - N/A   Unknown
6:00 AM 26.6 °F 16.2 °F 23.0 °F 86% 29.56 in 10.0 mi West 11.5 mph - N/A Snow Light Snow
7:00 AM 27 °F - 24 °F 86% 29.55 in 15 mi West 13.8 mph - - Snow Light Snow
7:00 AM 26.6 °F 16.2 °F 24.8 °F 93% 29.55 in 15.0 mi West 11.5 mph - N/A Snow Light Snow
8:00 AM 26.6 °F 16.2 °F 24.8 °F 93% 29.55 in 15.0 mi WSW 11.5 mph 17.3 mph N/A Snow Light Snow
9:00 AM 26.6 °F 17.5 °F 24.8 °F 93% 29.55 in 15.0 mi WSW 9.2 mph - N/A Snow Light Snow
9:40 AM - - - N/A% - 15.0 mi WSW 13.8 mph - N/A   Mostly Cloudy
10:00 AM 26.6 °F 15.7 °F 24.8 °F 93% 29.55 in 15.0 mi WSW 12.7 mph - N/A   Mostly Cloudy
10:22 AM - - - N/A% - 15.0 mi West 11.5 mph - N/A   Mostly Cloudy
11:00 AM 26.6 °F 15.7 °F 24.8 °F 93% 29.55 in 15.0 mi West 12.7 mph - N/A   Mostly Cloudy
11:33 AM - - - N/A% - 15.0 mi WSW 5.8 mph - N/A   Unknown
12:00 PM 28.4 °F 19.1 °F 26.6 °F 93% 29.54 in 15.0 mi WSW 10.4 mph - N/A Snow Light Snow
12:39 PM - - - N/A% - 15.0 mi West 10.4 mph - N/A   Unknown
1:00 PM 29 °F - 27 °F 88% 29.54 in 15 mi WSW 10.4 mph - - Snow Light Snow
1:00 PM 28.4 °F 19.1 °F 26.6 °F 93% 29.54 in 15.0 mi WSW 10.4 mph - N/A Snow Light Snow
1:18 PM - - - N/A% - 15.0 mi WSW 13.8 mph - N/A   Mostly Cloudy
1:44 PM - - - N/A% - 15.0 mi WSW 17.3 mph - N/A   Mostly Cloudy
2:00 PM 30.2 °F 19.3 °F 26.6 °F 86% 29.54 in 15.0 mi West 15.0 mph - N/A   Mostly Cloudy
2:25 PM - - - N/A% - 15.0 mi WSW 15.0 mph - N/A   Mostly Cloudy
3:00 PM 28.4 °F 18.0 °F 26.6 °F 93% 29.54 in 15.0 mi WSW 12.7 mph - N/A   Mostly Cloudy
4:00 PM 30.2 °F 18.9 °F 24.8 °F 80% 29.54 in 15.0 mi WSW 16.1 mph - N/A   Mostly Cloudy
5:00 PM 30.2 °F 18.9 °F 24.8 °F 80% 29.54 in 15.0 mi WSW 16.1 mph - N/A   Overcast
6:00 PM 30.2 °F 19.3 °F 24.8 °F 80% 29.53 in 15.0 mi WSW 15.0 mph - N/A   Partly Cloudy
7:00 PM 29 °F - 25 °F 77% 29.52 in 15 mi SW 13.8 mph - -   Partly Cloudy
7:00 PM 30.2 °F 19.8 °F 24.8 °F 80% 29.52 in 15.0 mi SW 13.8 mph - N/A   Mostly Cloudy
7:35 PM - - - N/A% - 15.0 mi SSW 12.7 mph - N/A   Overcast
8:00 PM 28.4 °F 18.5 °F 24.8 °F 86% 29.52 in 15.0 mi SSW 11.5 mph - N/A   Overcast
9:00 PM 28.4 °F 19.1 °F 24.8 °F 86% 29.50 in 15.0 mi SSW 10.4 mph - N/A   Overcast
10:00 PM 28.4 °F 17.5 °F 24.8 °F 86% 29.49 in 15.0 mi SW 13.8 mph - N/A   Overcast
11:00 PM 28.4 °F 18.0 °F 24.8 °F 86% 29.47 in 15.0 mi SSW 12.7 mph - N/A   Overcast